This demonstration page uses our WeatherBlox Daily Observations layout. Learn more.

Left ArrowRight Arrow

Hourly Observations for November 18, 2015

Temp ( °F °C ) Dew Point ( °F °C ) Humidity (%) Winds ( mph kmh ) Pressure ( in mb ) Visibility ( mi km ) Precip ( " mm )
12:53 am 00:53 Clear 61 16.1 37 2.8 41 41 ESE 6 9 29.98 1015 10 16 0.00 0.00
1:53 am 01:53 Clear 61 16.1 39 3.9 44 44 ESE 6 9 29.97 1015 10 16 0.00 0.00
2:53 am 02:53 Clear 60 15.6 40 4.4 47 47 VRB 5 7 29.96 1014 10 16 0.00 0.00
3:53 am 03:53 Clear 61 16.1 41 5 48 48 ESE 6 9 29.94 1014 10 16 0.00 0.00
4:53 am 04:53 Clear 62 16.7 43 6.1 50 50 SE 9 15 29.92 1013 10 16 0.00 0.00
5:53 am 05:53 Clear 63 17.2 42 5.6 47 47 SSE 13 20 29.91 1013 10 16 0.00 0.00
6:53 am 06:53 Clear 62 16.7 41 5 46 46 SE 8 13 29.90 1012 10 16 0.00 0.00
7:53 am 07:53 Sunny 61 16.1 41 5 48 48 SE 13 20 29.87 1012 10 16 0.00 0.00
8:53 am 08:53 Partly Cloudy 63 17.2 43 6.1 48 48 SE 10 17 29.88 1012 10 16 0.00 0.00
9:53 am 09:53 Cloudy 64 17.8 45 7.2 50 50 SE 8 13 29.87 1011 10 16 0.00 0.00
10:53 am 10:53 Cloudy 66 18.9 47 8.3 50 50 SSE 9 15 29.85 1011 10 16 0.00 0.00
11:53 am 11:53 Cloudy 67 19.4 50 10 55 55 SSE 9 15 29.80 1009 10 16 0.00 0.00
12:25 pm 12:25 Cloudy with Heavy Rain 61 16.1 55 12.8 81 81 SW 10 17 29.85 1011 2 3 0.06 1.52
12:37 pm 12:37 Cloudy with Heavy Rain 59 15 56 13.3 90 90 W 12 19 29.85 1011 2 2 0.12 3.05
12:41 pm 12:41 Cloudy with Rain 58 14.4 54 12.2 87 87 W 12 19 29.85 1011 2 3 0.12 3.05
12:48 pm 12:48 Cloudy with Rain 57 14 54 12 88 88 W 8 13 29.85 1011 4 6 0.14 3.56
12:53 pm 12:53 Cloudy with Rain 56 13.3 54 12.2 93 93 W 7 11 29.85 1011 3 5 0.15 3.81
12:58 pm 12:58 Cloudy with Heavy Rain 56 13.3 54 12.2 93 93 WSW 7 11 29.85 1011 2 3 0.03 0.76
1:05 pm 13:05 Cloudy with Heavy Rain 56 13.3 54 12.2 93 93 WSW 6 9 29.85 1011 1 2 0.09 2.29
1:12 pm 13:12 Cloudy with Heavy Rain 56 13.3 54 12.2 93 93 VRB 3 6 29.85 1011 1 1 0.13 3.30
1:18 pm 13:18 Cloudy with Rain 56 13.3 54 12.2 93 93 Calm 29.85 1011 2 3 0.14 3.56
1:21 pm 13:21 Cloudy with Light Rain 56 13.3 55 12.8 97 97 VRB 3 6 29.83 1010 3 5 0.14 3.56
1:53 pm 13:53 Cloudy with Heavy Rain 58 14.4 56 13.3 93 93 VRB 5 7 29.82 1010 3 4 0.19 4.83
2:19 pm 14:19 Cloudy with Heavy Rain 59 15 57 13.9 93 93 VRB 5 7 29.83 1010 2 2 0.10 2.54
2:25 pm 14:25 Cloudy with Heavy Rain 58 14.4 57 13.9 97 97 W 12 19 29.85 1011 1 2 0.16 4.06
2:53 pm 14:53 Cloudy with Heavy Rain 57 13.9 57 13.9 100 100 SE 6 9 29.82 1010 1 1 0.47 11.94
3:00 pm 15:00 Cloudy with Heavy Rain 57 13.9 57 13.9 100 100 SE 3 6 29.83 1010 2 3 0.03 0.76
3:07 pm 15:07 Cloudy with Heavy Rain 58 14.4 57 13.9 97 97 VRB 5 7 29.83 1010 3 4 0.06 1.52
3:17 pm 15:17 Cloudy with Rain 59 15 58 14.4 96 96 VRB 6 9 29.83 1010 3 5 0.08 2.03
3:29 pm 15:29 Cloudy with Heavy Rain 59 15 58 14.4 96 96 SE 6 9 29.83 1010 2 3 0.15 3.81
3:36 pm 15:36 Cloudy with Heavy Rain 59 15 58 14.4 96 96 VRB 3 6 29.80 1009 1 2 0.19 4.83
3:53 pm 15:53 Cloudy with Heavy Rain 59 15 58 14.4 96 96 ESE 9 15 29.79 1009 1 2 0.36 9.14
4:01 pm 16:01 Cloudy with Rain 59 15 58 14.4 96 96 ESE 9 15 29.80 1009 3 5 0.01 0.25
4:53 pm 16:53 Cloudy with Light Rain 61 16.1 59 15 93 93 ESE 14 22 29.70 1006 10 16 0.04 1.02
5:53 pm 17:53 Mostly Cloudy 62 16.7 59 15 90 90 VRB 6 9 29.74 1007 10 16 0.01 0.25
6:53 pm 18:53 Cloudy with Light Rain 62 16.7 58 14.4 86 86 SSE 8 13 29.75 1008 10 16 0.00 0.03
7:53 pm 19:53 Cloudy 62 16.7 58 14.4 86 86 S 9 15 29.75 1008 10 16 0.00 0.03
8:46 pm 20:46 Cloudy with Heavy Rain 61 16.1 59 15 93 93 WSW 10 17 29.80 1009 3 4 0.05 1.27
8:53 pm 20:53 Cloudy with Heavy Rain 61 16.1 59 15 93 93 SW 6 9 29.78 1009 2 2 0.08 2.03
8:55 pm 20:55 Cloudy with Heavy Rain 61 16.1 59 15 93 93 SW 7 11 29.77 1008 2 3 0.00 0.03
9:05 pm 21:05 Mostly Cloudy with Light Rain 60 15.6 59 15 96 96 SSE 3 6 29.77 1008 9 14 0.00 0.03
9:12 pm 21:12 Mostly Cloudy 60 15.6 59 15 96 96 VRB 3 6 29.77 1008 10 16 0.00 0.03
9:53 pm 21:53 Clear 60 15.6 59 15 96 96 Calm 29.79 1009 10 16 0.00 0.03
10:53 pm 22:53 Clear 60 15.6 58 14.4 93 93 SSW 7 11 29.81 1009 10 16 0.00 0.00
11:33 pm 23:33 Mostly Cloudy 60 15.6 56 13.3 86 86 SW 8 13 29.83 1010 10 16 0.00 0.00
11:43 pm 23:43 Partly Cloudy 59 15 51 10.6 75 75 WSW 10 17 29.83 1010 10 16 0.00 0.00
11:53 pm 23:53 Partly Cloudy 58 14.4 50 10 75 75 SW 10 17 29.83 1010 10 16 0.00 0.00

Powered by AerisWeather